Location: Boleita
(10.4833°N, 66.8167°W)
Time: 03:06:40
(UTC+00:00)

Cosmos 1844 Rocket - Pass Details

Date: 08 November 2025
Orbit: 823 x 844 km, 71.0° (Epoch: 09 December)

Event Time Altitude Azimuth Distance (km) Brightness Sun altitude
Exits shadow 09:33:49 12° 258° (WSW) 2,328 4.5 -11.8°
Maximum altitude 09:33:54 12° 257° (WSW) 2,328 4.5 -11.8°
Drops below altitude 10° 09:35:51 10° 237° (WSW) 2,455 4.7 -11.3°
Sets 09:40:06 0° 206° (SSW) 3,391 5.7 -10.3°
